Hourly Weather Bolshoe Belyakovo

Today, 17 June, Thursday

Time Temperature Precipitation Wind Pressure Humidity
00:00 +13°C° 0 mm 2 mps 739 mmHg 77%
01:00 +12°C° 0 mm 2 mps 739 mmHg 77%
02:00 +12°C° 0 mm 2 mps 739 mmHg 78%
03:00 +12°C° 0 mm 2 mps 739 mmHg 78%
04:00 +12°C° 0 mm 2 mps 740 mmHg 79%
05:00 +12°C° 0 mm 2 mps 740 mmHg 79%
06:00 +14°C° 0 mm 2 mps 740 mmHg 75%
07:00 +16°C° 0 mm 2 mps 740 mmHg 70%
08:00 +18°C° 0 mm 2 mps 741 mmHg 66%
09:00 +19°C° 0 mm 2 mps 741 mmHg 62%
10:00 +21°C° 0 mm 2 mps 741 mmHg 59%
11:00 +23°C° 0 mm 2 mps 742 mmHg 56%
12:00 +24°C° 0 mm 2 mps 742 mmHg 54%
13:00 +24°C° 0 mm 2 mps 742 mmHg 53%
14:00 +25°C° 0 mm 2 mps 741 mmHg 52%
15:00 +25°C° 0 mm 2 mps 741 mmHg 54%
16:00 +25°C° 0 mm 2 mps 741 mmHg 56%
17:00 +25°C° 0 mm 2 mps 741 mmHg 57%
18:00 +23°C° 0 mm 2 mps 741 mmHg 63%
19:00 +21°C° 0 mm 2 mps 741 mmHg 69%
20:00 +19°C° 0 mm 2 mps 741 mmHg 75%
21:00 +18°C° 0 mm 2 mps 741 mmHg 78%
22:00 +17°C° 0 mm 2 mps 742 mmHg 81%
23:00 +14°C° 0 mm 3 mps 742 mmHg 84%

Tomorrow, 18 June, Friday

Time Temperature Precipitation Wind Pressure Humidity
00:00 +15°C° 0 mm 2 mps 742 mmHg 85%
01:00 +14°C° 0 mm 2 mps 742 mmHg 86%
02:00 +14°C° 0 mm 2 mps 742 mmHg 87%
03:00 +14°C° 0 mm 2 mps 742 mmHg 87%
04:00 +14°C° 0 mm 2 mps 742 mmHg 86%
05:00 +14°C° 0 mm 2 mps 742 mmHg 86%
06:00 +16°C° 0 mm 2 mps 742 mmHg 81%
07:00 +18°C° 0 mm 3 mps 742 mmHg 76%
08:00 +19°C° 0 mm 3 mps 742 mmHg 71%
09:00 +21°C° 0 mm 3 mps 742 mmHg 67%
10:00 +22°C° 0 mm 3 mps 742 mmHg 63%
11:00 +24°C° 0 mm 3 mps 742 mmHg 59%
12:00 +24°C° 0 mm 3 mps 742 mmHg 56%
13:00 +25°C° 0 mm 3 mps 742 mmHg 54%
14:00 +25°C° 0 mm 3 mps 742 mmHg 51%
15:00 +25°C° 0 mm 3 mps 741 mmHg 54%
16:00 +25°C° 0 mm 3 mps 741 mmHg 56%
17:00 +25°C° 0 mm 3 mps 741 mmHg 59%
18:00 +24°C° 0 mm 3 mps 741 mmHg 65%
19:00 +21°C° 0 mm 3 mps 741 mmHg 71%
20:00 +19°C° 0 mm 3 mps 741 mmHg 77%
21:00 +18°C° 0 mm 3 mps 741 mmHg 80%
22:00 +17°C° 0 mm 3 mps 741 mmHg 83%
23:00 +16°C° 0 mm 3 mps 741 mmHg 86%

Day after tomorrow, 19 June, Saturday

Time Temperature Precipitation Wind Pressure Humidity
00:00 +16°C° 0 mm 2 mps 741 mmHg 88%
01:00 +15°C° 0 mm 2 mps 741 mmHg 90%
02:00 +15°C° 0 mm 2 mps 741 mmHg 92%
03:00 +15°C° 0 mm 2 mps 741 mmHg 92%
04:00 +15°C° 0 mm 2 mps 741 mmHg 92%
05:00 +15°C° 0 mm 2 mps 741 mmHg 93%
06:00 +17°C° 0 mm 2 mps 741 mmHg 88%
07:00 +19°C° 0 mm 3 mps 741 mmHg 83%
08:00 +20°C° 0 mm 3 mps 741 mmHg 78%
09:00 +22°C° 0 mm 3 mps 741 mmHg 74%
10:00 +24°C° 0 mm 3 mps 741 mmHg 69%
11:00 +25°C° 0 mm 3 mps 741 mmHg 64%
12:00 +26°C° 0 mm 3 mps 741 mmHg 61%
13:00 +26°C° 0 mm 3 mps 740 mmHg 57%
14:00 +27°C° 0 mm 3 mps 740 mmHg 54%
15:00 +27°C° 0 mm 3 mps 740 mmHg 56%
16:00 +27°C° 0 mm 3 mps 740 mmHg 59%
17:00 +27°C° 0 mm 3 mps 739 mmHg 61%
18:00 +25°C° 0 mm 2 mps 739 mmHg 67%
19:00 +23°C° 0 mm 2 mps 739 mmHg 73%
20:00 +21°C° 0 mm 2 mps 739 mmHg 80%
21:00 +20°C° 0 mm 2 mps 739 mmHg 83%
22:00 +18°C° 0 mm 3 mps 739 mmHg 86%
23:00 +17°C° 0 mm 3 mps 739 mmHg 89%

20 June, Sunday

Time Temperature Precipitation Wind Pressure Humidity
00:00 +17°C° 0 mm 3 mps 739 mmHg 90%
01:00 +17°C° 0 mm 2 mps 739 mmHg 92%
02:00 +16°C° 0 mm 2 mps 739 mmHg 93%
03:00 +17°C° 0 mm 2 mps 739 mmHg 93%
04:00 +17°C° 0 mm 2 mps 739 mmHg 93%
05:00 +17°C° 0 mm 2 mps 739 mmHg 93%
06:00 +19°C° 0 mm 2 mps 739 mmHg 88%
07:00 +20°C° 0 mm 3 mps 739 mmHg 83%
08:00 +22°C° 0 mm 3 mps 739 mmHg 78%
09:00 +22°C° 0 mm 3 mps 739 mmHg 77%
10:00 +22°C° 0 mm 3 mps 739 mmHg 76%
11:00 +22°C° 0 mm 3 mps 739 mmHg 75%
12:00 +24°C° 0 mm 3 mps 739 mmHg 71%
13:00 +25°C° 0 mm 3 mps 738 mmHg 67%
14:00 +26°C° 0 mm 3 mps 738 mmHg 62%
15:00 +26°C° 0.2 mm 3 mps 738 mmHg 64%
16:00 +26°C° 0.2 mm 2 mps 738 mmHg 65%
17:00 +26°C° 0.2 mm 2 mps 737 mmHg 67%
18:00 +25°C° 0.4 mm 2 mps 737 mmHg 72%
19:00 +24°C° 0.4 mm 2 mps 737 mmHg 78%
20:00 +23°C° 0.4 mm 2 mps 737 mmHg 83%
21:00 +21°C° 0 mm 2 mps 737 mmHg 86%
22:00 +20°C° 0 mm 2 mps 737 mmHg 89%
23:00 +19°C° 0 mm 3 mps 737 mmHg 92%

21 June, Monday

Time Temperature Precipitation Wind Pressure Humidity
00:00 +19°C° 0 mm 2 mps 737 mmHg 92%
01:00 +18°C° 0 mm 2 mps 737 mmHg 93%
02:00 +18°C° 0 mm 2 mps 737 mmHg 93%
03:00 +18°C° 0 mm 2 mps 737 mmHg 93%
04:00 +18°C° 0 mm 2 mps 737 mmHg 93%
05:00 +18°C° 0 mm 2 mps 737 mmHg 93%
06:00 +19°C° 0 mm 3 mps 737 mmHg 89%
07:00 +21°C° 0 mm 3 mps 737 mmHg 85%
08:00 +22°C° 0 mm 4 mps 737 mmHg 80%
09:00 +23°C° 0 mm 4 mps 737 mmHg 74%
10:00 +25°C° 0 mm 4 mps 737 mmHg 67%
11:00 +27°C° 0 mm 5 mps 737 mmHg 60%
12:00 +27°C° 0 mm 5 mps 737 mmHg 58%
13:00 +28°C° 0 mm 5 mps 737 mmHg 56%
14:00 +29°C° 0 mm 5 mps 736 mmHg 54%
15:00 +28°C° 0 mm 5 mps 736 mmHg 57%
16:00 +28°C° 0 mm 5 mps 736 mmHg 60%
17:00 +28°C° 0 mm 4 mps 736 mmHg 64%
18:00 +26°C° 0 mm 4 mps 736 mmHg 70%
19:00 +25°C° 0 mm 3 mps 736 mmHg 76%
20:00 +22°C° 0 mm 3 mps 736 mmHg 82%
21:00 +21°C° 0 mm 3 mps 735 mmHg 85%
22:00 +20°C° 0 mm 3 mps 735 mmHg 89%
23:00 +19°C° 0 mm 3 mps 735 mmHg 92%

22 June, Tuesday

Time Temperature Precipitation Wind Pressure Humidity
00:00 +19°C° 0 mm 3 mps 735 mmHg 93%
01:00 +19°C° 0 mm 3 mps 735 mmHg 95%
02:00 +19°C° 0 mm 3 mps 735 mmHg 96%
03:00 +19°C° 0 mm 3 mps 735 mmHg 96%
04:00 +19°C° 0 mm 3 mps 735 mmHg 96%
05:00 +19°C° 0 mm 3 mps 735 mmHg 96%
06:00 +21°C° 0 mm 4 mps 736 mmHg 90%
07:00 +22°C° 0 mm 4 mps 736 mmHg 84%
08:00 +23°C° 0 mm 5 mps 736 mmHg 79%
09:00 +25°C° 0 mm 5 mps 736 mmHg 73%
10:00 +27°C° 0 mm 6 mps 736 mmHg 67%
11:00 +28°C° 0 mm 6 mps 736 mmHg 61%
12:00 +29°C° 0 mm 6 mps 736 mmHg 59%
13:00 +30°C° 0 mm 5 mps 736 mmHg 56%
14:00 +32°C° 0 mm 5 mps 736 mmHg 54%
15:00 +30°C° 0 mm 5 mps 736 mmHg 56%
16:00 +30°C° 0 mm 5 mps 736 mmHg 59%
17:00 +29°C° 0 mm 5 mps 735 mmHg 61%
18:00 +28°C° 0 mm 5 mps 736 mmHg 66%
19:00 +26°C° 0 mm 5 mps 736 mmHg 72%
20:00 +25°C° 0 mm 4 mps 736 mmHg 77%
21:00 +23°C° 0 mm 4 mps 736 mmHg 80%
22:00 +22°C° 0 mm 4 mps 736 mmHg 83%
23:00 +21°C° 0 mm 4 mps 736 mmHg 85%
Show more